QPF
0.01 0.02 0.02 0.02 0.02 0.02 0.02 0.02 0.02 0.01 0.02 0.03 0.03 0.03 0.04 0.07 0.05 0.04 0.04 0.03 0.02 0.03 0.05 0.07 0.06 0.06 0.07 0.08 0.10 0.11 0.12 0.15 0.15 0.15 0.12 0.08 0.06 0.07 0.08 0.09 0.10 0.13 0.12 0.11
0.01 0.02 0.02 0.02 0.02 0.01 0.01 0.01 0.01 0.01 0.02 0.03 0.03 0.03 0.03 0.03 0.04 0.04 0.04 0.02 0.03 0.03 0.05 0.05 0.07 0.08 0.10 0.13 0.14 0.12 0.12 0.13 0.14 0.16 0.14 0.11 0.11 0.15 0.18 0.19 0.20 0.19 0.16 0.15
0.02 0.03 0.03 0.02 0.03 0.03 0.02 0.01 0.01 0.02 0.03 0.04 0.05 0.08 0.09 0.04 0.04 0.04 0.04 0.03 0.04 0.04 0.05 0.06 0.07 0.07 0.08 0.10 0.12 0.15 0.19 0.23 0.25 0.24 0.20 0.20 0.22 0.24 0.23 0.22 0.22 0.20 0.18 0.16
0.06 0.05 0.04 0.03 0.04 0.03 0.03 0.02 0.03 0.03 0.04 0.06 0.07 0.09 0.10 0.07 0.06 0.05 0.04 0.05 0.05 0.05 0.06 0.07 0.08 0.09 0.10 0.12 0.13 0.14 0.16 0.20 0.22 0.25 0.27 0.29 0.33 0.36 0.34 0.32 0.29 0.24 0.21 0.19
0.10 0.09 0.07 0.06 0.05 0.06 0.05 0.05 0.06 0.08 0.10 0.11 0.10 0.08 0.08 0.07 0.06 0.06 0.05 0.04 0.04 0.05 0.05 0.07 0.08 0.09 0.11 0.14 0.18 0.19 0.20 0.22 0.25 0.26 0.28 0.32 0.36 0.37 0.33 0.31 0.26 0.21 0.21 0.21
0.15 0.14 0.10 0.08 0.08 0.07 0.07 0.11 0.11 0.11 0.11 0.14 0.12 0.11 0.09 0.07 0.04 0.02 0.02 0.02 0.02 0.02 0.03 0.05 0.06 0.09 0.11 0.13 0.17 0.21 0.21 0.20 0.22 0.26 0.26 0.26 0.27 0.26 0.21 0.18 0.16 0.16 0.17 0.17
0.17 0.17 0.14 0.09 0.08 0.08 0.10 0.14 0.19 0.20 0.19 0.16 0.15 0.11 0.07 0.04 0.02 0.01 0.01 0.01 0.01 0.01 0.01 0.03 0.04 0.05 0.07 0.10 0.13 0.13 0.12 0.13 0.15 0.19 0.22 0.21 0.19 0.16 0.12 0.10 0.09 0.10 0.08 0.08
0.20 0.23 0.20 0.11 0.07 0.09 0.10 0.15 0.29 0.25 0.19 0.17 0.14 0.09 0.06 0.05 0.03 0.02 0.02 0.01 0.02 0.02 0.02 0.02 0.03 0.04 0.05 0.05 0.06 0.06 0.06 0.04 0.04 0.04 0.05 0.05 0.04 0.04 0.04 0.04 0.04 0.04 0.04 0.04
0.26 0.23 0.19 0.17 0.16 0.19 0.21 0.22 0.28 0.24 0.17 0.13 0.09 0.05 0.04 0.03 0.02 0.02 0.02 0.02 0.02 0.02 0.02 0.03 0.03 0.02 0.02 0.02 0.02 0.02 0.01 0.01 0.01 0.01 0.01 0.01 0.01 0.01 0.02 0.03 0.03 0.03 0.03 0.02
0.32 0.26 0.21 0.19 0.17 0.20 0.22 0.22 0.21 0.17 0.15 0.11 0.06 0.04 0.02 0.02 0.01 0.01 0.01 0.01 0.01 0.01 0.01 0.01 0.01 0.01 0.00 0.00 0.00 0.00 0.00 0.00 0.00 0.00 0.00 0.01 0.01 0.01 0.01 0.01 0.01 0.01 0.00 0.00
0.37 0.37 0.31 0.27 0.24 0.25 0.24 0.24 0.18 0.15 0.13 0.11 0.07 0.04 0.02 0.02 0.01 0.01 0.00 0.00 0.00 0.00 0.00 0.00 0.00 0.00 0.00 0.00 0.00 0.00 0.00 0.00 0.00 0.00 0.00 0.00 0.00 0.00 0.00 0.00 0.00 0.00 0.00 0.00
0.37 0.37 0.43 0.39 0.32 0.31 0.28 0.29 0.21 0.15 0.12 0.08 0.06 0.04 0.03 0.02 0.01 0.01 0.00 0.00 0.00 0.00 0.00 0.00 0.00 0.00 0.00 0.00 0.00 0.00 0.00 0.00 0.00 0.00 0.00 0.00 0.00 0.00 0.00 0.00 0.00 0.00 0.00 0.00
0.23 0.28 0.36 0.33 0.25 0.19 0.20 0.19 0.18 0.13 0.08 0.05 0.06 0.05 0.02 0.01 0.01 0.01 0.00 0.00 0.00 0.00 0.00 0.00 0.00 0.00 0.00 0.00 0.00 0.00 0.00 0.00 0.00 0.00 0.00 0.00 0.00 0.00 0.00 0.00 0.00 0.00 0.00 0.00
0.21 0.17 0.20 0.19 0.15 0.11 0.14 0.10 0.08 0.06 0.03 0.02 0.01 0.01 0.01 0.01 0.01 0.01 0.00 0.00 0.00 0.00 0.00 0.00 0.00 0.00 0.00 0.00 0.00 0.00 0.00 0.00 0.00 0.00 0.00 0.00 0.00 0.00 0.00 0.00 0.00 0.00 0.00 0.00
0.13 0.09 0.08 0.07 0.07 0.07 0.08 0.06 0.04 0.03 0.02 0.01 0.01 0.01 0.01 0.01 0.01 0.01 0.00 0.00 0.00 0.00 0.00 0.00 0.00 0.00 0.00 0.00 0.00 0.00 0.00 0.00 0.00 0.00 0.00 0.00 0.00 0.00 0.00 0.00 0.00 0.00 0.00 0.00
0.10 0.09 0.07 0.05 0.04 0.03 0.03 0.02 0.02 0.01 0.01 0.01 0.01 0.01 0.01 0.01 0.01 0.01 0.01 0.01 0.00 0.01 0.01 0.01 0.02 0.01 0.00 0.00 0.00 0.00 0.00 0.00 0.00 0.00 0.00 0.00 0.00 0.00 0.00 0.00 0.00 0.00 0.00 0.00
0.10 0.08 0.05 0.03 0.02 0.02 0.01 0.01 0.01 0.00 0.00 0.00 0.00 0.00 0.00 0.00 0.00 0.00 0.00 0.00 0.01 0.01 0.02 0.02 0.01 0.00 0.00 0.00 0.00 0.00 0.00 0.00 0.00 0.00 0.00 0.00 0.00 0.00 0.00 0.00 0.00 0.00 0.00 0.00
0.06 0.03 0.02 0.01 0.01 0.01 0.00 0.00 0.00 0.00 0.00 0.00 0.00 0.00 0.00 0.00 0.00 0.00 0.00 0.00 0.01 0.01 0.01 0.01 0.00 0.00 0.00 0.00 0.00 0.00 0.00 0.00 0.00 0.00 0.00 0.00 0.00 0.00 0.00 0.00 0.00 0.00 0.00 0.00
0.02 0.01 0.01 0.01 0.00 0.00 0.00 0.00 0.00 0.00 0.00 0.00 0.00 0.00 0.00 0.00 0.00 0.00 0.00 0.01 0.01 0.01 0.01 0.00 0.00 0.00 0.00 0.00 0.00 0.00 0.00 0.00 0.00 0.00 0.00 0.00 0.00 0.00 0.00 0.00 0.00 0.00 0.00 0.00
0.01 0.01 0.01 0.01 0.00 0.00 0.00 0.00 0.00 0.00 0.00 0.00 0.00 0.00 0.00 0.00 0.00 0.00 0.01 0.01 0.01 0.01 0.01 0.00 0.00 0.00 0.00 0.00 0.00 0.00 0.00 0.00 0.00 0.00 0.00 0.00 0.00 0.00 0.00 0.00 0.00 0.00 0.00 0.00
0.02 0.01 0.01 0.00 0.00 0.00 0.00 0.00 0.00 0.00 0.00 0.00 0.00 0.00 0.00 0.00 0.00 0.00 0.01 0.01 0.01 0.01 0.00 0.00 0.00 0.00 0.00 0.00 0.00 0.00 0.00 0.00 0.00 0.00 0.00 0.00 0.00 0.00 0.00 0.00 0.00 0.00 0.00 0.00
0.01 0.01 0.00 0.00 0.00 0.00 0.00 0.00 0.00 0.00 0.00 0.00 0.00 0.00 0.00 0.00 0.00 0.01 0.01 0.01 0.01 0.00 0.00 0.00 0.00 0.00 0.00 0.00 0.00 0.00 0.00 0.00 0.00 0.00 0.00 0.00 0.00 0.00 0.00 0.00 0.00 0.00 0.00 0.01
0.01 0.01 0.01 0.00 0.00 0.00 0.00 0.00 0.00 0.00 0.00 0.00 0.00 0.00 0.00 0.00 0.01 0.01 0.01 0.01 0.01 0.01 0.01 0.01 0.01 0.00 0.00 0.00 0.00 0.00 0.00 0.00 0.00 0.00 0.00 0.00 0.00 0.00 0.00 0.00 0.00 0.00 0.01 0.01
0.00 0.00 0.00 0.00 0.00 0.00 0.00 0.00 0.00 0.00 0.00 0.00 0.00 0.00 0.01 0.01 0.01 0.01 0.02 0.02 0.01 0.01 0.01 0.00 0.00 0.00 0.00 0.00 0.00 0.00 0.00 0.00 0.00 0.00 0.00 0.00 0.00 0.00 0.00 0.00 0.01 0.01 0.01 0.01
0.00 0.00 0.00 0.00 0.00 0.00 0.00 0.00 0.00 0.00 0.00 0.00 0.01 0.01 0.02 0.02 0.02 0.01 0.02 0.02 0.01 0.01 0.00 0.00 0.00 0.00 0.00 0.00 0.00 0.00 0.00 0.00 0.00 0.00 0.00 0.00 0.00 0.00 0.01 0.01 0.01 0.01 0.01 0.01
0.00 0.00 0.00 0.00 0.00 0.00 0.00 0.00 0.01 0.01 0.01 0.01 0.02 0.03 0.03 0.03 0.02 0.02 0.02 0.01 0.01 0.00 0.01 0.01 0.00 0.00 0.00 0.00 0.00 0.00 0.00 0.00 0.00 0.00 0.00 0.00 0.00 0.01 0.01 0.00 0.00 0.00 0.00 0.00
0.00 0.00 0.00 0.00 0.00 0.00 0.00 0.01 0.01 0.02 0.02 0.02 0.02 0.02 0.02 0.02 0.02 0.02 0.02 0.01 0.00 0.00 0.00 0.00 0.00 0.00 0.00 0.00 0.00 0.00 0.00 0.00 0.00 0.00 0.00 0.00 0.00 0.00 0.00 0.00 0.00 0.00 0.00 0.00
MSLP
1008.41 1008.69 1009.06 1009.50 1009.94 1010.32 1010.57 1010.64 1010.51 1010.18 1009.71 1009.16 1008.62 1008.17 1007.86 1007.74 1007.81 1008.02 1008.32 1008.67 1009.01 1009.29 1009.51 1009.69 1009.85 1010.04 1010.30 1010.64 1011.08 1011.58 1012.12 1012.64 1013.11 1013.49 1013.76 1013.92 1014.01 1014.04 1014.07 1014.12 1014.22 1014.37 1014.56 1014.78
1008.66 1008.85 1009.07 1009.30 1009.49 1009.62 1009.64 1009.53 1009.31 1008.98 1008.60 1008.22 1007.91 1007.70 1007.63 1007.71 1007.90 1008.18 1008.50 1008.80 1009.06 1009.27 1009.42 1009.56 1009.72 1009.93 1010.22 1010.62 1011.11 1011.66 1012.22 1012.75 1013.20 1013.55 1013.78 1013.89 1013.93 1013.91 1013.88 1013.88 1013.92 1014.02 1014.16 1014.34
1008.90 1008.98 1009.05 1009.09 1009.07 1008.98 1008.81 1008.58 1008.29 1008.00 1007.73 1007.53 1007.44 1007.47 1007.62 1007.88 1008.21 1008.56 1008.88 1009.16 1009.36 1009.49 1009.58 1009.68 1009.81 1010.02 1010.34 1010.77 1011.28 1011.84 1012.41 1012.93 1013.36 1013.68 1013.87 1013.95 1013.94 1013.88 1013.82 1013.78 1013.78 1013.84 1013.94 1014.08
1009.12 1009.09 1009.01 1008.87 1008.68 1008.42 1008.13 1007.82 1007.52 1007.28 1007.13 1007.11 1007.22 1007.47 1007.82 1008.25 1008.69 1009.11 1009.46 1009.71 1009.86 1009.95 1009.99 1010.04 1010.15 1010.35 1010.66 1011.08 1011.60 1012.15 1012.71 1013.20 1013.60 1013.89 1014.05 1014.09 1014.07 1013.99 1013.92 1013.87 1013.86 1013.90 1013.99 1014.11
1009.29 1009.12 1008.91 1008.64 1008.32 1007.96 1007.59 1007.25 1006.97 1006.81 1006.79 1006.92 1007.22 1007.65 1008.17 1008.74 1009.29 1009.77 1010.14 1010.39 1010.53 1010.57 1010.58 1010.60 1010.68 1010.86 1011.15 1011.56 1012.05 1012.57 1013.09 1013.55 1013.92 1014.18 1014.31 1014.35 1014.32 1014.26 1014.20 1014.16 1014.16 1014.21 1014.31 1014.42
1009.34 1009.06 1008.73 1008.36 1007.96 1007.55 1007.16 1006.84 1006.62 1006.55 1006.65 1006.92 1007.37 1007.95 1008.61 1009.29 1009.92 1010.45 1010.86 1011.12 1011.25 1011.29 1011.29 1011.29 1011.35 1011.51 1011.78 1012.15 1012.60 1013.09 1013.56 1013.98 1014.31 1014.54 1014.67 1014.71 1014.70 1014.66 1014.63 1014.62 1014.66 1014.74 1014.85 1014.97
1009.23 1008.84 1008.42 1008.00 1007.57 1007.16 1006.81 1006.55 1006.41 1006.44 1006.66 1007.06 1007.62 1008.31 1009.06 1009.81 1010.51 1011.09 1011.53 1011.82 1011.97 1012.02 1012.03 1012.03 1012.09 1012.24 1012.48 1012.82 1013.23 1013.66 1014.09 1014.46 1014.76 1014.97 1015.09 1015.14 1015.16 1015.15 1015.16 1015.20 1015.27 1015.38 1015.52 1015.66
1008.92 1008.44 1007.98 1007.54 1007.14 1006.79 1006.51 1006.35 1006.32 1006.46 1006.78 1007.27 1007.92 1008.68 1009.49 1010.28 1011.01 1011.63 1012.10 1012.42 1012.61 1012.69 1012.73 1012.76 1012.83 1012.97 1013.20 1013.51 1013.87 1014.26 1014.64 1014.97 1015.23 1015.42 1015.54 1015.60 1015.64 1015.66 1015.71 1015.78 1015.89 1016.03 1016.19 1016.35
1008.41 1007.89 1007.43 1007.03 1006.70 1006.45 1006.28 1006.24 1006.33 1006.58 1006.99 1007.55 1008.25 1009.04 1009.87 1010.69 1011.43 1012.06 1012.56 1012.91 1013.14 1013.27 1013.35 1013.41 1013.51 1013.66 1013.88 1014.17 1014.49 1014.84 1015.17 1015.46 1015.69 1015.86 1015.97 1016.04 1016.08 1016.13 1016.20 1016.30 1016.43 1016.59 1016.76 1016.92
1007.77 1007.26 1006.85 1006.53 1006.31 1006.18 1006.16 1006.25 1006.47 1006.82 1007.30 1007.91 1008.63 1009.42 1010.24 1011.04 1011.77 1012.40 1012.91 1013.30 1013.56 1013.74 1013.86 1013.97 1014.09 1014.26 1014.47 1014.74 1015.03 1015.34 1015.63 1015.88 1016.08 1016.23 1016.33 1016.39 1016.44 1016.49 1016.57 1016.68 1016.81 1016.98 1017.15 1017.31
1007.11 1006.66 1006.34 1006.14 1006.06 1006.08 1006.21 1006.43 1006.77 1007.20 1007.74 1008.37 1009.08 1009.85 1010.62 1011.38 1012.08 1012.69 1013.20 1013.60 1013.89 1014.10 1014.27 1014.41 1014.56 1014.73 1014.94 1015.19 1015.46 1015.72 1015.98 1016.20 1016.37 1016.50 1016.58 1016.64 1016.68 1016.73 1016.80 1016.90 1017.03 1017.18 1017.34 1017.49
1006.59 1006.24 1006.04 1005.98 1006.05 1006.23 1006.49 1006.84 1007.27 1007.76 1008.33 1008.95 1009.63 1010.34 1011.06 1011.75 1012.40 1012.97 1013.46 1013.85 1014.15 1014.38 1014.57 1014.73 1014.89 1015.06 1015.26 1015.48 1015.72 1015.96 1016.18 1016.38 1016.53 1016.64 1016.72 1016.77 1016.80 1016.85 1016.91 1016.99 1017.10 1017.24 1017.37 1017.50
1006.35 1006.13 1006.07 1006.15 1006.36 1006.67 1007.06 1007.50 1007.98 1008.51 1009.07 1009.67 1010.29 1010.93 1011.56 1012.18 1012.76 1013.28 1013.72 1014.09 1014.38 1014.61 1014.80 1014.95 1015.10 1015.26 1015.44 1015.63 1015.84 1016.05 1016.24 1016.42 1016.57 1016.68 1016.76 1016.81 1016.86 1016.90 1016.96 1017.03 1017.12 1017.23 1017.35 1017.45
1006.48 1006.39 1006.47 1006.68 1007.01 1007.42 1007.89 1008.38 1008.89 1009.42 1009.95 1010.49 1011.04 1011.59 1012.14 1012.67 1013.17 1013.63 1014.02 1014.35 1014.61 1014.81 1014.97 1015.11 1015.23 1015.35 1015.49 1015.65 1015.83 1016.01 1016.19 1016.37 1016.52 1016.65 1016.75 1016.83 1016.89 1016.95 1017.02 1017.09 1017.17 1017.26 1017.36 1017.44
1006.99 1007.03 1007.22 1007.54 1007.95 1008.43 1008.93 1009.44 1009.94 1010.43 1010.90 1011.37 1011.84 1012.31 1012.77 1013.21 1013.64 1014.02 1014.36 1014.64 1014.86 1015.03 1015.15 1015.24 1015.31 1015.39 1015.49 1015.60 1015.75 1015.91 1016.09 1016.27 1016.45 1016.61 1016.75 1016.88 1016.98 1017.07 1017.16 1017.24 1017.32 1017.40 1017.47 1017.52
1007.82 1007.97 1008.25 1008.63 1009.09 1009.58 1010.08 1010.57 1011.03 1011.46 1011.87 1012.26 1012.64 1013.03 1013.41 1013.78 1014.14 1014.47 1014.75 1014.98 1015.16 1015.28 1015.35 1015.39 1015.42 1015.44 1015.49 1015.57 1015.68 1015.83 1016.01 1016.22 1016.43 1016.63 1016.83 1017.01 1017.17 1017.30 1017.42 1017.52 1017.60 1017.66 1017.71 1017.73
1008.85 1009.08 1009.41 1009.83 1010.29 1010.77 1011.23 1011.67 1012.07 1012.43 1012.77 1013.09 1013.40 1013.72 1014.04 1014.35 1014.66 1014.95 1015.19 1015.39 1015.52 1015.60 1015.63 1015.62 1015.60 1015.58 1015.58 1015.63 1015.72 1015.86 1016.04 1016.27 1016.52 1016.78 1017.03 1017.27 1017.48 1017.66 1017.80 1017.92 1018.00 1018.05 1018.07 1018.05
1009.93 1010.20 1010.56 1010.97 1011.41 1011.85 1012.26 1012.64 1012.97 1013.27 1013.54 1013.80 1014.07 1014.34 1014.62 1014.91 1015.20 1015.46 1015.68 1015.86 1015.97 1016.02 1016.02 1015.98 1015.92 1015.87 1015.83 1015.85 1015.92 1016.05 1016.25 1016.49 1016.77 1017.07 1017.37 1017.65 1017.90 1018.12 1018.28 1018.40 1018.47 1018.49 1018.47 1018.41
1010.92 1011.20 1011.55 1011.93 1012.33 1012.72 1013.08 1013.40 1013.68 1013.93 1014.16 1014.39 1014.63 1014.88 1015.16 1015.44 1015.73 1016.00 1016.23 1016.40 1016.51 1016.56 1016.55 1016.49 1016.41 1016.34 1016.28 1016.28 1016.33 1016.46 1016.65 1016.90 1017.20 1017.51 1017.84 1018.14 1018.41 1018.63 1018.79 1018.89 1018.94 1018.92 1018.85 1018.73
1011.71 1011.99 1012.31 1012.67 1013.03 1013.37 1013.68 1013.95 1014.20 1014.42 1014.63 1014.85 1015.10 1015.36 1015.65 1015.96 1016.26 1016.55 1016.80 1017.00 1017.13 1017.19 1017.19 1017.14 1017.06 1016.98 1016.92 1016.91 1016.95 1017.06 1017.24 1017.48 1017.77 1018.08 1018.39 1018.68 1018.93 1019.13 1019.26 1019.33 1019.33 1019.27 1019.14 1018.97
1012.30 1012.56 1012.86 1013.18 1013.51 1013.81 1014.09 1014.35 1014.58 1014.79 1015.01 1015.25 1015.51 1015.80 1016.12 1016.46 1016.80 1017.12 1017.40 1017.63 1017.79 1017.88 1017.91 1017.88 1017.82 1017.76 1017.70 1017.68 1017.72 1017.81 1017.97 1018.18 1018.43 1018.70 1018.97 1019.22 1019.42 1019.57 1019.66 1019.67 1019.62 1019.50 1019.32 1019.09
1012.73 1012.97 1013.25 1013.54 1013.84 1014.13 1014.40 1014.65 1014.89 1015.12 1015.36 1015.63 1015.92 1016.25 1016.60 1016.97 1017.34 1017.69 1018.01 1018.27 1018.46 1018.59 1018.65 1018.66 1018.63 1018.59 1018.55 1018.53 1018.56 1018.63 1018.76 1018.92 1019.12 1019.33 1019.53 1019.71 1019.85 1019.93 1019.95 1019.90 1019.79 1019.62 1019.40 1019.13
1013.09 1013.31 1013.57 1013.86 1014.14 1014.43 1014.71 1014.97 1015.23 1015.49 1015.76 1016.05 1016.37 1016.72 1017.10 1017.49 1017.88 1018.25 1018.59 1018.87 1019.10 1019.26 1019.36 1019.40 1019.41 1019.40 1019.38 1019.37 1019.39 1019.44 1019.53 1019.64 1019.77 1019.91 1020.03 1020.13 1020.19 1020.20 1020.15 1020.05 1019.90 1019.69 1019.44 1019.15
1013.46 1013.68 1013.94 1014.22 1014.51 1014.80 1015.09 1015.38 1015.66 1015.95 1016.24 1016.56 1016.90 1017.26 1017.65 1018.04 1018.43 1018.80 1019.14 1019.43 1019.67 1019.85 1019.98 1020.05 1020.09 1020.11 1020.11 1020.12 1020.13 1020.17 1020.22 1020.28 1020.35 1020.42 1020.47 1020.49 1020.47 1020.42 1020.32 1020.17 1019.98 1019.76 1019.50 1019.21
1013.93 1014.15 1014.41 1014.70 1015.00 1015.31 1015.62 1015.93 1016.23 1016.54 1016.86 1017.19 1017.53 1017.89 1018.25 1018.62 1018.98 1019.33 1019.64 1019.92 1020.16 1020.34 1020.48 1020.58 1020.64 1020.68 1020.71 1020.73 1020.75 1020.77 1020.79 1020.82 1020.84 1020.85 1020.83 1020.79 1020.72 1020.62 1020.48 1020.31 1020.11 1019.88 1019.63 1019.37
1014.51 1014.75 1015.02 1015.32 1015.64 1015.97 1016.30 1016.62 1016.95 1017.27 1017.60 1017.92 1018.25 1018.58 1018.91 1019.24 1019.55 1019.85 1020.12 1020.36 1020.57 1020.73 1020.87 1020.97 1021.05 1021.11 1021.15 1021.18 1021.21 1021.23 1021.24 1021.24 1021.23 1021.20 1021.15 1021.08 1020.97 1020.84 1020.69 1020.51 1020.31 1020.10 1019.87 1019.63
1015.19 1015.45 1015.74 1016.06 1016.39 1016.74 1017.09 1017.43 1017.77 1018.10 1018.42 1018.74 1019.04 1019.33 1019.62 1019.88 1020.13 1020.36 1020.57 1020.76 1020.91 1021.05 1021.16 1021.25 1021.32 1021.39 1021.44 1021.48 1021.52 1021.55 1021.56 1021.56 1021.54 1021.50 1021.44 1021.35 1021.24 1021.10 1020.95 1020.78 1020.60 1020.41 1020.20 1019.99
Thickness
5745 5757 5760 5761 5763 5761 5751 5742 5733 5739 5741 5750 5756 5756 5757 5757 5755 5752 5751 5750 5749 5747 5746 5745 5744 5743 5740 5738 5736 5733 5729 5724 5722 5721 5719 5717 5716 5715 5714 5713 5713 5711 5708 5706
5736 5753 5756 5756 5763 5764 5760 5757 5750 5748 5743 5757 5758 5755 5753 5752 5751 5747 5745 5745 5745 5744 5743 5742 5741 5739 5737 5734 5732 5730 5725 5721 5719 5716 5715 5712 5710 5709 5708 5707 5705 5704 5702 5700
5713 5735 5740 5734 5753 5758 5759 5762 5757 5744 5748 5753 5748 5748 5747 5746 5745 5742 5740 5739 5738 5738 5738 5737 5736 5735 5732 5730 5727 5723 5718 5715 5712 5711 5708 5705 5703 5701 5699 5697 5696 5694 5693 5691
5700 5714 5704 5734 5760 5763 5756 5756 5761 5758 5753 5751 5745 5740 5740 5740 5738 5734 5732 5731 5730 5730 5731 5730 5728 5726 5724 5721 5717 5713 5709 5706 5704 5702 5699 5696 5694 5690 5688 5688 5686 5684 5682 5680
5686 5690 5704 5730 5745 5747 5741 5736 5751 5750 5745 5740 5738 5733 5725 5728 5729 5726 5724 5722 5721 5721 5721 5720 5717 5715 5712 5708 5704 5701 5697 5694 5692 5691 5688 5685 5682 5680 5677 5676 5674 5673 5671 5668
5681 5682 5686 5715 5736 5747 5740 5720 5740 5744 5739 5735 5731 5715 5710 5717 5719 5716 5714 5713 5711 5710 5709 5706 5703 5703 5700 5694 5690 5686 5683 5681 5680 5679 5676 5674 5671 5669 5667 5665 5663 5661 5657 5655
5675 5676 5691 5713 5728 5735 5712 5716 5733 5737 5735 5730 5723 5719 5713 5711 5709 5707 5704 5702 5701 5699 5695 5692 5691 5690 5686 5682 5677 5674 5672 5671 5669 5666 5664 5662 5660 5658 5655 5654 5651 5647 5644 5641
5668 5667 5680 5709 5715 5712 5714 5725 5728 5728 5727 5720 5714 5710 5706 5703 5700 5697 5694 5691 5689 5687 5683 5680 5679 5678 5673 5668 5666 5665 5662 5660 5657 5655 5654 5651 5648 5645 5642 5639 5635 5632 5629 5625
5669 5674 5690 5700 5706 5713 5716 5717 5719 5718 5717 5713 5706 5700 5696 5692 5689 5686 5684 5681 5678 5676 5672 5668 5667 5665 5661 5656 5655 5653 5650 5647 5644 5643 5640 5638 5635 5632 5628 5625 5621 5618 5615 5611
5666 5677 5687 5695 5701 5707 5710 5712 5713 5712 5709 5703 5695 5691 5686 5682 5678 5675 5672 5670 5667 5664 5661 5656 5654 5652 5649 5646 5644 5641 5636 5633 5631 5628 5626 5624 5621 5619 5615 5611 5608 5605 5601 5597
5663 5673 5680 5687 5692 5698 5702 5703 5700 5697 5696 5691 5687 5680 5676 5672 5668 5665 5662 5659 5656 5653 5649 5644 5642 5639 5638 5635 5632 5628 5624 5621 5618 5615 5613 5610 5608 5605 5602 5599 5596 5592 5587 5583
5660 5670 5672 5676 5686 5691 5690 5687 5686 5684 5680 5678 5677 5671 5667 5662 5659 5655 5652 5649 5645 5641 5637 5634 5631 5628 5625 5623 5621 5617 5612 5609 5605 5603 5600 5597 5593 5590 5588 5585 5583 5579 5575 5570
5667 5672 5673 5676 5678 5680 5679 5678 5677 5674 5670 5666 5663 5662 5658 5653 5649 5645 5642 5638 5635 5631 5627 5623 5620 5617 5614 5612 5609 5604 5600 5597 5593 5590 5587 5584 5580 5576 5571 5568 5566 5563 5559 5555
5669 5669 5664 5667 5668 5669 5669 5667 5665 5661 5658 5656 5653 5650 5647 5643 5638 5634 5631 5628 5625 5621 5616 5612 5609 5605 5603 5600 5597 5593 5589 5586 5581 5577 5573 5569 5565 5561 5556 5552 5548 5544 5541 5538
5663 5663 5660 5660 5660 5659 5658 5656 5652 5647 5645 5642 5641 5638 5635 5631 5626 5623 5621 5618 5614 5609 5604 5601 5597 5593 5591 5588 5584 5580 5576 5572 5567 5563 5559 5554 5550 5545 5540 5536 5530 5526 5522 5519
5655 5655 5654 5652 5649 5647 5646 5644 5640 5636 5634 5632 5628 5626 5623 5620 5616 5613 5610 5607 5602 5596 5592 5588 5583 5580 5577 5574 5570 5566 5562 5560 5555 5548 5543 5538 5534 5528 5523 5518 5513 5508 5504 5500
5646 5641 5641 5639 5638 5636 5635 5633 5631 5628 5625 5621 5618 5615 5612 5608 5604 5600 5596 5593 5589 5584 5579 5575 5570 5567 5564 5560 5556 5551 5547 5543 5540 5533 5527 5522 5516 5511 5506 5500 5495 5491 5487 5485
5641 5638 5636 5634 5632 5628 5625 5624 5621 5618 5615 5612 5609 5605 5601 5597 5592 5588 5583 5579 5575 5569 5565 5562 5558 5554 5550 5546 5542 5537 5532 5527 5522 5516 5510 5505 5500 5495 5490 5485 5480 5476 5472 5470
5632 5629 5627 5625 5623 5620 5616 5613 5611 5608 5605 5602 5598 5593 5589 5585 5581 5576 5572 5567 5561 5555 5550 5548 5545 5540 5535 5531 5528 5522 5518 5512 5506 5500 5495 5491 5485 5480 5474 5470 5466 5462 5458 5455
5620 5619 5617 5614 5612 5609 5605 5602 5600 5596 5594 5591 5587 5582 5577 5573 5569 5564 5558 5552 5546 5542 5537 5534 5529 5524 5520 5517 5514 5508 5502 5496 5490 5485 5480 5475 5470 5465 5460 5457 5453 5449 5446 5443
5608 5607 5605 5603 5600 5598 5596 5593 5590 5587 5584 5581 5577 5572 5567 5562 5557 5551 5545 5537 5532 5529 5524 5520 5514 5510 5506 5502 5498 5492 5487 5481 5476 5470 5466 5461 5456 5451 5447 5443 5440 5437 5434 5432
5597 5595 5594 5592 5589 5586 5585 5583 5581 5578 5574 5570 5566 5561 5555 5548 5542 5536 5530 5525 5520 5516 5511 5505 5501 5497 5493 5489 5483 5478 5473 5468 5463 5458 5453 5448 5443 5439 5435 5432 5429 5427 5425 5422
5586 5584 5582 5581 5578 5575 5574 5572 5570 5567 5563 5558 5554 5548 5542 5536 5530 5523 5516 5511 5508 5504 5498 5493 5489 5485 5481 5475 5469 5464 5460 5455 5450 5446 5441 5436 5433 5429 5426 5423 5420 5418 5416 5414
5576 5574 5572 5570 5568 5565 5561 5559 5558 5555 5551 5547 5542 5538 5532 5524 5516 5512 5507 5502 5497 5492 5486 5481 5478 5473 5468 5462 5457 5452 5447 5443 5439 5435 5430 5427 5424 5420 5417 5414 5412 5410 5408 5407
5567 5565 5563 5561 5557 5553 5551 5548 5545 5542 5538 5533 5529 5525 5520 5515 5508 5500 5495 5490 5485 5480 5475 5470 5467 5462 5456 5451 5446 5441 5437 5433 5429 5425 5421 5418 5415 5412 5409 5406 5404 5402 5401 5400
5556 5554 5552 5550 5546 5543 5541 5537 5533 5528 5525 5519 5515 5511 5506 5501 5496 5490 5484 5479 5474 5469 5464 5460 5455 5451 5446 5441 5436 5432 5428 5424 5420 5416 5413 5410 5407 5404 5401 5399 5397 5395 5394 5393
5545 5543 5540 5538 5535 5533 5530 5525 5521 5516 5512 5508 5502 5497 5493 5489 5484 5479 5475 5469 5465 5460 5455 5451 5446 5442 5437 5433 5428 5423 5419 5416 5412 5409 5406 5402 5400 5397 5394 5392 5390 5389 5388 5387